Location: Harbor Island
(32.3990°N, 80.4435°W)
Time: 01:21:43
(UTC-04:00)

Daily predictions for brighter satellites

Satellite Brightness Start Highest point End
(mag) Time Altitude Azimuth Time Altitude Azimuth Time Altitude Azimuth
Cosmos 2344 3.9 04:16:41 60° N 04:16:41 60° N 04:23:29 10° NNE
CZ-4C R/B 3.5 04:17:36 49° SE 04:17:36 49° SE 04:23:15 10° SE
Cosmos 2227 Rocket 3.5 04:21:34 37° ENE 04:21:34 37° ENE 04:25:31 10° NE
Lacrosse 5 3.6 04:29:39 30° NE 04:29:39 30° NE 04:32:11 10° NE
Cosmos 2297 Rocket 3.4 04:29:49 38° ESE 04:29:49 38° ESE 04:34:56 10° NE
Cosmos 2219 Rocket 3.2 04:27:12 10° N 04:32:37 44° ENE 04:37:59 10° SE
CZ-2D R/B 4.4 04:28:37 10° N 04:29:18 14° N 04:29:18 14° N
Okean O Rocket 3.7 04:36:50 10° NNE 04:38:32 22° NNE 04:38:32 22° NNE
NOSS 3-4 (A) 3.6 04:43:36 66° NNE 04:43:36 66° NNE 04:49:09 10° NNE
NOSS 3-4 (C) 3.6 04:43:40 67° NNE 04:43:40 67° NNE 04:49:16 10° NNE
CZ-4B R/B 4.3 04:47:27 10° NNE 04:50:34 40° NE 04:50:34 40° NE
PAYLOAD B 4.3 04:52:15 10° NNE 04:57:45 74° ESE 04:58:16 68° SE
Cosmos 2082 3.7 04:59:49 74° N 04:59:49 74° N 05:04:56 10° NNE
IRS-1C Rocket 4.2 04:57:11 10° N 05:01:40 64° N 05:01:40 64° N
Resurs 1-4 Rocket 4.4 04:58:33 10° NNW 04:59:05 12° NNW 04:59:05 12° NNW
Meteor 2-8 Rocket 4.4 05:05:58 62° NW 05:05:58 62° NW 05:11:30 10° N
Cosmos 2333 Rocket 2.4 05:03:35 10° NNW 05:09:17 71° ENE 05:14:55 10° SSE
GOES 2 Rocket 4.0 05:09:05 55° SSW 05:09:45 58° S 05:17:10 10° E
Meteor 1-19 Rocket 4.1 05:10:46 56° S 05:12:04 89° W 05:17:44 10° N
Cosmos 1727 Rocket 3.9 05:18:50 54° WSW 05:19:48 60° W 05:26:02 10° N
PSLV R/B 4.0 05:18:06 10° NNE 05:22:23 61° E 05:24:33 27° S
Cosmos 923 Rocket 3.9 05:25:12 10° NNW 05:30:32 70° WSW 05:35:49 10° S
Meteor 2-4 Rocket 3.7 05:26:47 17° S 05:31:23 84° W 05:37:18 10° N
DELTA 2 R/B (1) 3.5 05:30:56 51° W 05:32:19 75° NNW 05:37:54 10° ENE
Meteor 1-23 Rocket 4.1 05:27:35 12° S 05:32:50 89° W 05:38:31 10° N
CZ-4B R/B 3.3 05:27:44 10° N 05:33:00 54° WNW 05:34:21 43° WSW
Cosmos 2173 Rocket 4.5 05:27:39 10° N 05:33:41 60° E 05:39:43 10° SSE
Cosmos 2237 Rocket 2.0 05:31:02 10° NNW 05:36:41 81° WSW 05:42:17 10° SSE
Cosmos 1666 3.1 05:33:25 10° N 05:37:15 62° E 05:41:02 10° SSE
NOSS 3-2 (A) 3.9 05:29:46 10° NNW 05:37:29 80° WSW 05:45:38 10° SSE
Hubble Space Telescope 1.8 05:41:26 30° SSW 05:41:26 30° SSW 05:45:00 10° SE
USA 238 4.5 05:43:13 29° WSW 05:43:13 29° WSW 05:48:16 10° SSW
Okean-O 2.6 05:38:06 10° NNE 05:42:33 85° ESE 05:46:59 10° SSW
Cosmos 1459 Rocket 4.2 05:36:56 10° N 05:43:19 76° E 05:49:36 10° S
CZ-3A R/B 3.7 05:39:20 21° SW 05:45:06 33° S 05:48:51 10° ESE
RESURS DK-1 3.3 05:46:25 30° NW 05:46:25 30° NW 05:49:31 10° N
ATLAS 5 CENTAUR R/B 2.5 05:40:37 10° NNW 05:46:50 85° ENE 05:53:25 10° SSE
OTV 4 1.0 05:47:38 43° NNE 05:47:39 43° NNE 05:50:17 10° E
Cosmos 1898 Rocket 3.4 05:43:47 12° SSW 05:48:41 83° WNW 05:54:01 10° NNE
Cosmos 1980 3.7 05:44:34 10° NNW 05:50:06 55° WSW 05:55:37 10° S
ISS -1.5 05:51:54 20° S 05:51:54 20° S 05:53:18 10° SSE
Cosmos 2058 Rocket 3.2 05:46:29 10° N 05:50:51 74° E 05:55:11 10° S
USA 215 4.1 05:46:29 10° S 05:51:44 26° WSW 05:52:18 25° WSW
SL-16 R/B 2.8 05:49:57 10° NNW 05:55:34 60° ENE 06:01:09 10° SSE
Gbstr 26 Del rocket 4.5 05:48:24 12° NW 05:55:36 67° SW 06:03:40 10° SSE
Cosmos 1346 Rocket 3.3 05:56:50 36° W 05:57:18 37° W 06:01:01 10° N
MOS 1 Rocket 3.6 05:53:47 10° NNE 05:58:38 76° ESE 06:03:46 10° S
Meteor 2-9 Rocket 4.2 05:53:23 10° N 05:59:03 78° W 06:04:50 10° S
Cosmos 858 Rocket 4.4 05:55:11 10° SSW 06:00:24 72° WNW 06:05:41 10° NNE
COBE Rocket 3.9 05:55:38 10° NNE 06:00:25 76° E 06:05:04 10° S
NOSS 0 Rocket 4.4 05:56:01 10° NW 06:01:41 38° WSW 06:07:19 10° S
ADEOS II 2.1 05:57:05 10° N 06:02:15 58° WNW 06:07:23 10° SSW
CZ-4C R/B 4.0 06:03:02 21° WSW 06:03:28 21° WSW 06:09:00 10° SSW
ASTRO F (AKARI) 4.4 06:00:34 10° S 06:03:35 46° W 06:06:39 10° NNW
Cosmos 1937 Rocket 3.4 05:59:09 10° SSW 06:04:20 84° WNW 06:09:37 10° NNE
Cosmos 2227 Rocket 3.4 06:03:27 20° WNW 06:04:23 21° WNW 06:08:35 10° NNW
Meteor PRIRODA 3.8 06:02:51 10° N 06:06:29 52° WNW 06:10:04 10° SSW
NOSS 2-2 (D) 3.6 06:04:34 10° SSW 06:08:33 71° ESE 06:12:54 10° NE
NOAA 6 4.4 06:03:48 10° NNE 06:08:59 68° ESE 06:14:08 10° S
Lacrosse 5 3.5 06:08:53 15° WNW 06:10:33 18° NW 06:13:57 10° N
USA 116 4.3 06:05:50 10° S 06:11:05 68° W 06:15:58 10° NNW
Meteor 2-15 4.3 06:05:50 10° SSW 06:11:53 73° W 06:17:56 10° N
CZ-4B R/B 3.6 06:09:30 10° N 06:13:24 80° WNW 06:17:08 10° SSW
Cosmos 2297 Rocket 3.3 06:11:41 19° W 06:13:51 24° WNW 06:18:24 10° N
NOSS 3-2 (C) 4.1 06:07:11 10° NW 06:14:43 57° WSW 06:22:40 10° S
Cosmos 2219 Rocket 3.3 06:12:08 10° NW 06:16:09 20° W 06:20:10 10° SW
CENTAUR R/B 4.1 06:08:56 10° NNW 06:16:37 49° NE 06:24:37 10° SE
Delta 142 3.9 06:14:57 19° WSW 06:17:49 49° S 06:21:46 10° ESE
ADEOS Rocket 3.8 06:12:44 10° N 06:19:00 35° WNW 06:24:44 10° SW
Cosmos 1626 Rocket 3.5 06:16:43 10° S 06:21:07 79° W 06:25:29 10° N
NOSS 2-2 (C) 3.4 06:19:50 10° SW 06:23:53 75° WNW 06:28:18 10° NNE
NOSS 2-2 (E) 3.5 06:21:59 10° SW 06:26:00 62° WNW 06:30:30 10° NNE
Tiangong 1 3.5 06:25:49 10° NNW 06:27:13 12° N 06:28:36 10° NNE
Cosmos 2061 Rocket 4.3 06:23:32 10° NNW 06:29:29 44° W 06:35:28 10° SSW
Meteor 2-15 Rocket 4.5 06:24:58 10° SSW 06:30:56 59° W 06:36:55 10° N
Cosmos 292 Rocket 4.1 06:26:40 10° NNW 06:31:15 42° WSW 06:35:48 10° S
CSL-04 Rocket 4.5 06:28:34 10° NNE 06:33:45 55° E 06:38:56 10° S
Cosmos 1802 Rocket 4.2 06:28:59 10° NNW 06:34:47 45° W 06:40:33 10° SSW
Delta 2 Rocket 3.3 06:34:00 10° WNW 06:37:37 58° N 06:41:00 10° E
Meteor 1-31 Rocket 3.7 06:39:10 10° NNW 06:42:34 29° WNW 06:45:58 10° SW
Cosmos 1602 Rocket 4.0 06:39:38 10° SSW 06:43:50 41° W 06:48:02 10° N
USA 129 3.2 06:43:35 10° SW 06:45:04 17° W 06:46:31 10° NW
OAO 2 Rocket 3.5 06:40:21 10° WSW 06:45:40 81° SSE 06:51:01 10° ENE
BREEZE-M DEB (TANK) 3.9 06:39:53 10° NW 06:48:31 46° NNE 06:51:35 10° ESE
SKYMED 2 3.6 06:44:23 10° SSE 06:48:42 88° WSW 06:53:04 10° NNW
Cosmos 1725 Rocket 4.0 06:43:11 10° NNW 06:49:24 65° W 06:55:34 10° S
Iridium 4 Rocket 4.2 06:44:45 10° SSE 06:49:48 58° E 06:54:26 10° N
